Weather History for Placerville, CA

Change the Weather History Date:

Sunday, January 19, 2014

  Actual Average Record
Temperature  
Mean Temperature 59 °F -  
Max Temperature 68 °F 56 °F 68 °F (2014)
Min Temperature 50 °F 33 °F 44 °F (2011)
Degree Days  
Heating Degree Days 6    
Growing Degree Days 9 (Base 50)    
Moisture  
Dew Point 16 °F    
Average Humidity 19    
Maximum Humidity 26    
Minimum Humidity 13    
Precipitation  
Precipitation 0.00 in - - ()
Sea Level Pressure  
Sea Level Pressure 30.16 in    
Wind  
Wind Speed 6 mph (ESE)    
Max Wind Speed 12 mph    
Max Gust Speed -    
Visibility 10 miles    
Events      
Averages and records for this station are not official NWS values.
T = Trace of Precipitation, MM = Missing Value Source: NWS Daily Summary

Daily Weather History Graph

Daily Weather History Graph

Search for Another Location

Airport:

Trip Planner

Search our weather history database for the weather conditions in past years. The results will help you decide how hot, cold, wet, or windy it might be!

Date:

Astronomy

Jan. 19, 2014 Rise Set
Actual Time 7:17 AM PST 5:10 PM PST
Civil Twilight 6:49 AM PST 5:38 PM PST
Nautical Twilight 6:16 AM PST 6:11 PM PST
Astronomical Twilight 5:44 AM PST 6:43 PM PST
Moon 8:50 PM PST (1/19) 8:53 AM PST (1/19)
Length of Visible Light 10h 49m
Length of Day
9h 52m
Waning Gibbous, 89% of the Moon is Illuminated
Jan 19
Waning Gibbous
Jan 23
Last Quarter
Jan 30
New
Feb 6
First Quarter
Feb 14
Full

Hourly Weather History & Observations

Time (PST) Temp. Dew Point Humidity Pressure Visibility Wind Dir Wind Speed Gust Speed Precip Events Conditions
12:15 AM 53.6 °F 19.4 °F 26% 30.16 in 10.0 mi East 6.9 mph - N/A   Partly Cloudy
12:35 AM 53.6 °F 17.6 °F 24% 30.15 in 10.0 mi ESE 6.9 mph - N/A   Clear
12:55 AM 55.4 °F 17.6 °F 23% 30.15 in 10.0 mi ESE 6.9 mph - N/A   Partly Cloudy
1:15 AM 57.2 °F 15.8 °F 20% 30.15 in 10.0 mi ESE 5.8 mph - N/A   Partly Cloudy
1:35 AM 57.2 °F 15.8 °F 20% 30.15 in 10.0 mi ESE 6.9 mph - N/A   Mostly Cloudy
1:55 AM 57.2 °F 15.8 °F 20% 30.15 in 10.0 mi ESE 5.8 mph - N/A   Overcast
2:15 AM 57.2 °F 15.8 °F 20% 30.15 in 10.0 mi East 4.6 mph - N/A   Overcast
2:35 AM 57.2 °F 15.8 °F 20% 30.15 in 10.0 mi ESE 4.6 mph - N/A   Scattered Clouds
2:55 AM 57.2 °F 14.0 °F 18% 30.15 in 10.0 mi ESE 5.8 mph - N/A   Partly Cloudy
3:15 AM 55.4 °F 15.8 °F 21% 30.15 in 10.0 mi ESE 5.8 mph - N/A   Partly Cloudy
3:35 AM 53.6 °F 15.8 °F 22% 30.15 in 10.0 mi ESE 6.9 mph - N/A   Clear
3:55 AM 55.4 °F 14.0 °F 20% 30.15 in 10.0 mi ESE 5.8 mph - N/A   Clear
4:15 AM 55.4 °F 14.0 °F 20% 30.14 in 10.0 mi ESE 5.8 mph - N/A   Clear
4:35 AM 53.6 °F 14.0 °F 21% 30.15 in 10.0 mi East 5.8 mph - N/A   Clear
4:55 AM 55.4 °F 14.0 °F 20% 30.15 in 10.0 mi East 6.9 mph - N/A   Clear
5:15 AM 53.6 °F 14.0 °F 21% 30.15 in 10.0 mi East 6.9 mph - N/A   Clear
5:35 AM 55.4 °F 14.0 °F 20% 30.15 in 10.0 mi ESE 6.9 mph - N/A   Clear
5:55 AM 53.6 °F 14.0 °F 21% 30.15 in 10.0 mi East 6.9 mph - N/A   Clear
6:15 AM 51.8 °F 14.0 °F 22% 30.16 in 10.0 mi East 8.1 mph - N/A   Clear
6:35 AM 53.6 °F 14.0 °F 21% 30.16 in 10.0 mi East 8.1 mph - N/A   Clear
6:55 AM 50.0 °F 12.2 °F 22% 30.16 in 10.0 mi East 6.9 mph - N/A   Clear
7:15 AM 51.8 °F 12.2 °F 21% 30.16 in 10.0 mi East 8.1 mph - N/A   Clear
7:35 AM 50.0 °F 12.2 °F 22% 30.17 in 10.0 mi East 9.2 mph - N/A   Clear
7:55 AM 55.4 °F 10.4 °F 17% 30.17 in 10.0 mi East 8.1 mph - N/A   Clear
8:15 AM 55.4 °F 12.2 °F 18% 30.17 in 10.0 mi ESE 6.9 mph - N/A   Clear
8:35 AM 57.2 °F 12.2 °F 17% 30.17 in 10.0 mi ESE 6.9 mph - N/A   Clear
8:55 AM 59.0 °F 14.0 °F 17% 30.18 in 10.0 mi ESE 5.8 mph - N/A   Clear
9:15 AM 60.8 °F 14.0 °F 16% 30.19 in 10.0 mi ESE 4.6 mph - N/A   Clear
9:35 AM 62.6 °F 14.0 °F 15% 30.19 in 10.0 mi SE 4.6 mph - N/A   Clear
9:55 AM 64.4 °F 14.0 °F 14% 30.19 in 10.0 mi SE 3.5 mph - N/A   Clear
10:15 AM 66.2 °F 15.8 °F 14% 30.20 in 10.0 mi South 3.5 mph - N/A   Clear
10:35 AM 66.2 °F 15.8 °F 14% 30.20 in 10.0 mi West 3.5 mph - N/A   Clear
10:55 AM 64.4 °F 19.4 °F 18% 30.20 in 10.0 mi Calm Calm - N/A   Clear
11:15 AM 64.4 °F 17.6 °F 16% 30.20 in 10.0 mi Calm Calm - N/A   Clear
11:35 AM 64.4 °F 17.6 °F 16% 30.19 in 10.0 mi West 3.5 mph - N/A   Clear
11:55 AM 68.0 °F 17.6 °F 15% 30.18 in 10.0 mi SSW 4.6 mph - N/A   Clear
12:15 PM 68.0 °F 15.8 °F 13% 30.18 in 10.0 mi SW 3.5 mph - N/A   Clear
12:35 PM 68.0 °F 15.8 °F 13% 30.17 in 10.0 mi SSW 4.6 mph - N/A   Clear
12:55 PM 68.0 °F 17.6 °F 15% 30.16 in 10.0 mi WSW 5.8 mph - N/A   Clear
1:15 PM 66.2 °F 15.8 °F 14% 30.16 in 10.0 mi Calm Calm - N/A   Clear
1:35 PM 68.0 °F 15.8 °F 13% 30.15 in 10.0 mi SW 5.8 mph - N/A   Clear
1:55 PM 68.0 °F 15.8 °F 13% 30.14 in 10.0 mi SW 4.6 mph - N/A   Clear
2:15 PM 68.0 °F 15.8 °F 13% 30.14 in 10.0 mi SW 6.9 mph - N/A   Clear
2:35 PM 68.0 °F 15.8 °F 13% 30.14 in 10.0 mi SW 5.8 mph - N/A   Clear
2:55 PM 68.0 °F 15.8 °F 13% 30.14 in 10.0 mi SW 4.6 mph - N/A   Clear
3:15 PM 68.0 °F 17.6 °F 15% 30.14 in 10.0 mi WSW 5.8 mph - N/A   Clear
3:35 PM 66.2 °F 15.8 °F 14% 30.14 in 10.0 mi West 3.5 mph - N/A   Clear
3:55 PM 66.2 °F 15.8 °F 14% 30.14 in 10.0 mi WNW 3.5 mph - N/A   Clear
4:15 PM 64.4 °F 17.6 °F 16% 30.14 in 10.0 mi WNW 4.6 mph - N/A   Clear
4:55 PM 62.6 °F 23.0 °F 22% 30.14 in 10.0 mi NNW 4.6 mph - N/A   Clear
5:15 PM 62.6 °F 23.0 °F 22% 30.13 in 10.0 mi Calm Calm - N/A   Clear
5:35 PM 60.8 °F 24.8 °F 25% 30.14 in 10.0 mi NNW 4.6 mph - N/A   Clear
5:55 PM 60.8 °F 23.0 °F 23% 30.14 in 10.0 mi North 4.6 mph - N/A   Clear
6:15 PM 60.8 °F 23.0 °F 23% 30.14 in 10.0 mi NE 3.5 mph - N/A   Clear
6:35 PM 59.0 °F 21.2 °F 23% 30.15 in 10.0 mi East 4.6 mph - N/A   Partly Cloudy
6:55 PM 59.0 °F 19.4 °F 22% 30.15 in 10.0 mi ESE 3.5 mph - N/A   Partly Cloudy
7:15 PM 57.2 °F 19.4 °F 23% 30.15 in 10.0 mi East 8.1 mph - N/A   Clear
7:35 PM 55.4 °F 17.6 °F 23% 30.15 in 10.0 mi East 6.9 mph - N/A   Partly Cloudy
7:55 PM 55.4 °F 15.8 °F 21% 30.15 in 10.0 mi East 6.9 mph - N/A   Clear
8:15 PM 55.4 °F 15.8 °F 21% 30.16 in 10.0 mi East 6.9 mph - N/A   Partly Cloudy
8:35 PM 53.6 °F 15.8 °F 22% 30.16 in 10.0 mi East 8.1 mph - N/A   Scattered Clouds
8:55 PM 55.4 °F 14.0 °F 20% 30.16 in 10.0 mi East 6.9 mph - N/A   Scattered Clouds
9:15 PM 55.4 °F 14.0 °F 20% 30.16 in 10.0 mi East 6.9 mph - N/A   Scattered Clouds
9:35 PM 53.6 °F 14.0 °F 21% 30.17 in 10.0 mi East 9.2 mph - N/A   Scattered Clouds
9:55 PM 55.4 °F 14.0 °F 20% 30.17 in 10.0 mi East 10.4 mph - N/A   Partly Cloudy
10:15 PM 55.4 °F 14.0 °F 20% 30.17 in 10.0 mi East 11.5 mph - N/A   Partly Cloudy
10:35 PM 55.4 °F 14.0 °F 20% 30.18 in 10.0 mi East 9.2 mph - N/A   Partly Cloudy
10:55 PM 53.6 °F 12.2 °F 19% 30.18 in 10.0 mi East 9.2 mph - N/A   Partly Cloudy
11:15 PM 55.4 °F 12.2 °F 18% 30.18 in 10.0 mi East 9.2 mph - N/A   Partly Cloudy
11:35 PM 53.6 °F 12.2 °F 19% 30.18 in 10.0 mi East 9.2 mph - N/A   Partly Cloudy
11:55 PM 55.4 °F 10.4 °F 17% 30.18 in 10.0 mi East 8.1 mph - N/A   Partly Cloudy